COSMOS 1275 DEB, 42181

Orbit data source: Space-Track

COSMOS 1275 DEB, 42181 is space debris in LEO originally from a launch on Thu, 04 Jun 1981 UTC launched from the Plesetsk Missile And Space Complex (PKMTR). Debris objects in space refer to the collection of defunct objects orbiting the Earth. Examples of debris include non-operational satellites, rocket bodies, and fragments generated from explosions, collisions, or faulty payload assembly.

Loading next visibility...
Identifier
42181, 1981-053SV
Orbit
LEO
Country
Flag of CISCIS
Related business
Manufacturer
Unknown
Mission
Spacecraft
Bus & Motor
Unknown
Mass
Unknown
Launch date (UTC)
1981-06-04 (45 years ago)
Launch vehicle
Unknown
Launch site
Plesetsk Missile And Space Complex (PKMTR)
Object type
Payload
Rocket body
Debris
Shape & HBR
Unknown shape, 0.1 m
Radar Cross Section
Small (<0.1 m²)

Expand to show TLE details & history
Last TLE update: 1 day ago

TLE from 1 day ago
0 COSMOS 1275 DEB
1 42181U 81053SV  26033.37186357  .00002040  00000-0  14971-2 0  9997
2 42181  82.9030 174.8000 0075913 133.6870 227.0621 13.93917715 60151
Epoch: 2026-02-02T08:55Z
TLE epoch observation values (Epoch: 2026-02-02T08:55:29.012Z)
Latitude
-0.00006°
Longitude
-91.63899°
Altitude
955.804 km
Speed
7.355 km/s
True Right ascension
11h 39m 11s
True Declination
0° 00' 00"
Sunlit
Object was in full shadow at epoch
Visualization orbit readout
Latitude
Unknown
Longitude
Unknown
Altitude
Unknown
Speed
Unknown
Apparent Right ascension
Unknown
Apparent Declination
Unknown
Sunlit
N/A
Visualization observer readout
Local Sidereal Time
16:50:02
Azimuth
Unknown
Elevation
Unknown
Doppler factor
Unknown
Orbital elements
Apogee altitude
967.4 km
Perigee altitude
856.715 km
Semi-major axis
7,290.195 km
Eccentricity
0.00759
Inclination
82.903°
RAAN
174.8°
Arg. of periapsis
133.687°
True anomaly
226.42936°
Mean anomaly
227.0621°
Eccentric anomaly
226.74532°
Mean motion
3.48686 °/min
Orbital period
103.24 mins
BSTAR
0.0014971
Loading maneuver chart data...
Computing Atmospheric mass density...
Loading historical data...
Loading historical data...
Loading historical data...
Loading historical data...
Loading historical data...
Loading historical data...
Loading historical data...

Documentation

Showing up to 5 results
|